Location: Apollonia
(45.4499°N, 91.3019°W)
Time: 18:25:09
(UTC+00:00)

N. Korean satellite - Visible Passes

Search period start: 27 November 2021 00:00
Search period end: 07 December 2021 00:00
Orbit: 447 x 495 km, 97.3° (Epoch: 26 November)

Date Brightness Start Highest point End Pass type
(mag) Time Alt. Az. Time Alt. Az. Time Alt. Az.
27 Nov 6.5 11:20:46 10° NNE 11:24:12 73° ESE 11:27:34 10° S visible
27 Nov 9.8 23:31:07 10° SW 23:33:23 16° W 23:35:39 10° NW visible
28 Nov 8.4 10:52:37 10° NNE 10:55:40 30° E 10:58:41 10° SSE visible
28 Nov 7.9 12:26:21 10° NNW 12:28:39 17° WNW 12:30:55 10° WSW visible
28 Nov 8.6 23:01:30 10° SSW 23:04:46 33° W 23:08:02 10° NNW visible
29 Nov 9.6 10:25:10 10° ENE 10:27:01 14° E 10:28:51 10° SE visible
29 Nov 6.9 11:57:13 10° N 12:00:22 35° WNW 12:03:29 10° SW visible
30 Nov 6.3 11:28:34 10° NNE 11:31:59 87° WNW 11:35:21 10° SSW visible
30 Nov 9.9 23:39:35 10° WSW 23:41:15 13° W 23:42:55 10° WNW visible
01 Dec 7.9 11:00:16 10° NNE 11:03:28 37° E 11:06:38 10° SSE visible
01 Dec 8.1 12:34:29 10° NNW 12:36:21 14° WNW 12:38:11 10° W visible
01 Dec 9.0 23:09:31 10° SSW 23:12:35 27° W 23:15:38 10° NW visible
02 Dec 9.3 10:32:31 10° NE 10:34:49 17° E 10:37:07 10° SE visible
02 Dec 7.2 12:05:06 10° N 12:08:05 28° WNW 12:11:02 10° SW visible
03 Dec 6.2 11:36:19 10° N 11:39:41 68° WNW 11:43:02 10° SSW visible
03 Dec 10.3 23:48:43 10° W 23:49:04 10° W 23:49:24 10° W visible
04 Dec 7.3 11:07:53 10° NNE 11:11:11 48° E 11:14:27 10° S visible
04 Dec 8.3 12:42:44 10° NW 12:43:57 12° WNW 12:45:11 10° W visible
04 Dec 9.4 23:17:33 10° SSW 23:20:20 22° W 23:23:06 10° NW visible
05 Dec 9.0 10:39:54 10° NE 10:42:33 21° E 10:45:11 10° SE visible
05 Dec 7.5 12:12:57 10° NNW 12:15:42 23° WNW 12:18:27 10° WSW visible
06 Dec 6.4 11:44:01 10° N 11:47:20 52° WNW 11:50:37 10° SSW visible
